STARLINK-32630, 62047

Orbit data source: Space-Track

STARLINK-32630, 62047 is a payload satellite owned by SpaceX/Seattle (US) in LEO that was launched on Thu, 21 Nov 2024 UTC via an FALCON 9 launch vehicle from the Air Force Eastern Test Range (AFETR). Payload-class satellites include a variety of spacecraft equipped with specific instruments for various scientific and technological missions. These include communications satellites like Starlink; space stations such as the ISS; scientific satellites like the Hubble; Earth observation satellites from companies like Planet Labs, Umbra, and HawkEye 360; GPS; miniature CubeSats for education and research; and military/defense satellites.

Loading next visibility...
Identifier
62047, 2024-216R
Orbit
LEO
Last TLE update
4 hours ago
Origin
Manufacturer
SpaceX/Seattle
Mission
Operational Commercial Communications
Bus & Motor
STARLINK V2M, Unknown motor
Mass
730 kg wet, ~700 kg dry
Launch date (UTC)
2024-11-21 (7 months ago)
Launch vehicle
FALCON 9
Launch site
Air Force Eastern Test Range (AFETR)
Object type
Payload
Rocket body
Debris
Shape & HBR
Box + 2 Pan, 29 m
Radar Cross Section
36.964 m², Large (>1 m²)

Expand to show TLE details & history

TLE from 4 hours ago
0 STARLINK-32630
1 62047U 24216R   25182.22485497  .00015091  00000-0  55612-3 0  9991
2 62047  43.0015 243.6982 0001930 255.8077 104.2560 15.27618984 35260
Epoch: 2025-07-01T05:23Z
TLE epoch observation values (Epoch: 2025-07-01T05:23:47.469Z)
Latitude
-0.00004°
Longitude
-116.773°
Altitude
483.034 km
Speed
7.626 km/s
True Right ascension
16h 14m 47s
True Declination
0° 00' 00"
Sunlit
Object was in full shadow at epoch
Visualization orbit readout
Latitude
30.52718°
Longitude
23.38866°
Altitude
484.334 km
Speed
7.627 km/s
Apparent Right ascension
04h 40m 59s
Apparent Declination
-5° 20' 35"
Sunlit
Object is in daylight
Visualization observer readout
Local Sidereal Time
20:44:51
Azimuth
74.672° E
Elevation
-25.489°
Doppler factor
1
Orbital elements
Apogee altitude
486.202 km
Perigee altitude
483.553 km
Semi-major axis
6,863.014 km
Eccentricity
0.00019
Inclination
43.0015°
RAAN
243.6982°
Arg. of periapsis
255.8077°
True anomaly
Unknown
Mean anomaly
104.256°
Eccentric anomaly
Unknown
Mean motion
3.81743 °/min
Orbital period
94.3 mins
BSTAR
0.00055612
Loading maneuver chart data...
Loading SW <> Apogee altitude chart data...
Loading historical data...
Loading historical data...
Loading historical data...
Loading historical data...
Loading historical data...
Loading historical data...
Loading historical data...

STARLINK-32630 Visibility forecast

Observer location: undefined°, undefined°

Span
Click to sort rows by Start time (UTC) header in descending order
Start Az.
Max El. time (UTC)
Max El. Az.
Max El.
End time (UTC)
End Az.
6 mins2025-07-01 10:26:37.786Z284.814° WNW2025-07-01 10:29:37.786Z356.248° N37.982°2025-07-01 10:32:37.786Z73.967° E
5 mins2025-07-01 12:06:37.786Z289.869° WNW2025-07-01 12:08:37.786Z314.84° NW44.381°2025-07-01 12:11:37.786Z105.771° ESE
4 mins2025-07-01 13:45:37.786Z255.844° W2025-07-01 13:47:37.786Z210.376° SW22.962°2025-07-01 13:49:37.786Z167.784° S
4 mins2025-07-02 06:42:37.786Z179.2° S2025-07-02 06:43:37.786Z157.542° S21.002°2025-07-02 06:46:37.786Z96.93° ESE
5 mins2025-07-02 08:20:37.786Z251.857° W2025-07-02 08:22:37.786Z263.114° W44.853°2025-07-02 08:25:37.786Z71.638° E
|